RH
24 22 22 22 23 26 28 33 38 42 47 52 58 64 71 78 81 82 83 83 83 84 83 82 82 81 82 83 83 81 74 65 61 71 75 69 75 79 77 77 75 74 72 69 66 64 62 59 56 54 53 51 50 47 43 41 38 36 32 26 26 26 25 25 26 27 28 28 27 28 30 33 34 34 36 43 48 50 51 45 44 49 43 34 33 33 32 31
28 27 26 24 23 22 23 25 27 29 33 36 41 45 49 54 57 60 63 65 66 68 68 70 71 71 71 71 72 70 63 53 44 55 62 55 58 63 62 66 67 66 65 62 60 60 59 57 55 51 49 47 46 43 39 37 36 34 30 24 23 26 24 22 23 23 24 26 27 27 26 27 31 34 34 37 43 46 52 52 44 47 48 38 33 34 32 31
30 29 29 27 26 24 23 23 23 25 25 27 30 34 38 41 44 46 48 51 53 54 54 54 54 55 56 58 61 60 58 49 38 48 58 51 48 48 49 55 57 59 58 56 54 53 52 52 49 45 42 40 39 35 30 30 30 29 26 20 19 22 23 19 20 21 20 21 23 25 26 24 24 28 32 34 37 38 47 55 46 43 48 42 35 34 31 28
31 32 31 30 30 28 26 23 23 23 23 24 24 25 28 30 33 35 36 37 38 40 40 40 40 40 40 42 46 49 51 44 34 43 51 46 41 38 39 41 43 46 47 46 44 42 41 42 39 35 33 31 30 26 22 23 25 27 22 17 16 17 20 16 15 19 17 17 18 20 24 25 22 22 25 30 32 31 39 51 48 41 42 44 40 36 33 27
30 32 33 34 32 31 31 29 27 24 23 23 23 24 24 25 27 28 29 29 29 29 29 29 29 29 30 32 34 37 40 36 32 38 41 39 36 33 33 33 33 35 36 35 34 33 32 34 32 29 30 27 26 27 25 23 26 34 25 18 22 21 21 16 13 18 15 14 15 16 20 20 21 22 24 26 25 24 32 43 48 41 35 41 42 38 36 29
30 33 34 36 36 35 34 33 32 30 28 26 26 27 27 28 29 29 30 30 30 30 29 29 29 30 31 32 34 36 38 35 34 36 37 36 33 31 30 30 30 31 31 30 30 31 30 32 31 31 36 31 28 32 31 28 34 45 40 33 38 36 35 30 24 21 15 14 14 15 17 15 15 19 24 27 21 16 24 35 44 42 34 37 41 40 38 33
33 35 36 38 40 41 41 40 38 37 36 34 33 32 33 34 33 34 34 34 35 35 36 36 37 40 42 45 47 49 48 43 41 42 40 38 35 32 30 29 29 29 31 34 36 40 41 40 39 43 49 44 41 41 39 45 52 60 60 56 55 56 62 69 62 37 17 16 14 14 15 13 14 16 23 25 18 13 18 27 36 39 38 35 35 37 41 38
34 36 38 40 43 44 45 45 45 45 46 45 44 43 43 42 41 42 41 41 42 43 47 47 51 53 57 64 68 76 75 59 56 58 52 47 42 37 36 36 39 42 47 54 58 62 65 62 59 64 69 66 64 58 53 62 70 75 80 79 75 69 74 94 100 65 36 34 23 16 17 15 17 19 25 24 13 13 16 22 28 31 38 39 34 33 37 37
33 35 38 41 43 45 46 47 48 50 51 52 52 51 51 52 50 48 46 45 45 48 50 51 55 56 64 73 84 102 93 71 76 78 67 63 59 54 52 53 59 67 74 80 83 88 90 82 74 77 83 81 78 71 64 69 80 87 90 96 95 83 79 96 105 76 56 65 46 27 28 21 18 22 27 24 11 11 15 18 22 25 30 36 37 35 34 34
37 35 37 40 44 46 47 49 51 53 53 53 52 51 51 52 51 48 45 45 45 48 48 48 50 53 61 70 92 108 87 75 87 84 76 74 72 72 73 74 77 83 87 92 97 103 102 91 79 75 77 78 78 74 67 69 83 94 93 100 106 96 94 100 102 78 63 79 65 51 64 45 21 22 25 21 13 12 14 14 16 20 24 27 33 36 35 35
50 45 42 41 43 47 50 51 53 56 57 57 55 53 52 50 48 46 44 43 45 48 49 48 48 53 57 67 96 104 83 80 83 78 78 74 73 79 86 89 88 85 88 96 102 105 100 93 87 79 74 74 77 75 73 76 82 88 84 90 101 99 101 106 104 86 69 79 68 67 99 76 31 28 27 20 19 16 14 16 15 15 18 20 25 30 32 35
62 61 58 53 48 47 50 53 56 57 58 59 58 56 54 53 52 50 49 47 48 50 51 50 51 55 55 70 100 97 83 84 75 69 69 67 75 82 84 86 86 85 89 98 101 99 98 97 94 91 88 85 86 86 90 93 83 75 66 71 89 91 94 105 107 92 77 80 66 65 104 96 51 41 36 27 27 27 22 17 16 16 16 16 18 21 25 28
69 70 70 68 62 58 54 52 55 57 59 59 58 57 54 54 54 54 54 52 52 52 52 52 53 56 56 76 102 95 86 85 73 66 61 64 76 80 79 79 80 85 89 93 94 95 101 104 99 96 94 91 96 100 105 107 93 74 56 59 80 86 93 107 106 89 77 79 69 63 95 107 77 53 47 44 41 42 43 32 22 18 16 17 16 16 19 21
79 76 74 73 73 74 70 63 59 57 58 57 58 58 57 57 57 59 59 58 56 53 53 53 53 54 55 74 94 92 86 82 76 70 64 68 74 77 81 80 81 86 87 89 92 97 103 106 102 95 90 90 97 102 106 105 94 77 64 66 75 82 96 110 106 88 74 74 68 62 84 111 101 68 53 57 56 55 60 54 42 32 21 18 18 17 18 19
84 81 79 76 75 77 78 77 74 71 68 65 61 59 58 58 58 60 61 61 61 58 56 54 53 50 49 65 82 83 81 78 75 70 68 72 74 78 81 80 83 85 87 92 96 101 105 101 96 93 93 96 100 104 104 96 85 73 66 71 74 75 86 102 109 97 80 73 68 61 75 105 112 84 59 58 63 65 67 65 57 50 38 27 22 20 20 20
80 80 78 76 74 74 74 76 78 80 82 82 78 73 70 68 68 68 68 67 65 64 62 59 59 53 48 61 72 73 72 71 70 67 67 69 72 78 79 79 83 82 84 88 96 104 103 90 81 82 84 92 101 100 90 81 80 74 61 62 67 66 70 86 104 104 88 76 68 60 67 95 112 101 78 58 55 62 67 66 61 55 53 44 34 29 28 26
70 69 67 65 66 67 69 70 72 75 79 82 83 82 79 80 83 85 85 85 81 78 76 74 72 65 58 64 69 70 69 67 66 63 62 62 68 75 77 80 83 84 84 86 97 100 88 73 67 66 69 90 104 85 64 62 72 73 61 57 58 58 60 68 86 98 91 78 66 55 57 84 108 111 97 67 48 53 59 60 61 57 56 56 47 41 41 41
58 56 54 54 55 57 59 62 65 67 71 73 77 79 78 79 83 87 90 91 90 90 90 92 92 85 81 80 75 73 72 69 66 63 64 69 72 73 71 73 79 86 91 94 102 92 73 64 63 64 76 99 97 64 51 60 65 65 61 57 53 54 56 56 66 79 79 73 63 50 47 67 96 112 107 80 55 56 60 55 60 62 59 58 52 48 47 49
54 51 49 48 49 51 51 54 56 58 60 62 65 69 73 76 80 83 85 85 85 84 83 88 94 94 98 100 93 85 80 76 75 75 81 86 83 77 70 67 70 76 82 91 98 84 68 66 69 77 92 99 79 53 52 60 61 58 54 53 53 53 55 56 58 60 59 57 55 49 44 54 83 108 111 94 78 79 78 62 59 64 60 56 52 50 48 46
56 54 51 50 49 49 50 52 53 55 56 56 57 60 64 69 75 80 83 84 83 78 71 70 76 80 88 99 101 100 97 92 92 93 98 100 92 82 78 77 72 67 69 76 76 68 67 70 74 88 100 94 73 59 62 67 64 57 52 52 53 51 54 59 58 55 51 44 43 45 42 47 71 98 109 104 97 101 97 74 63 63 55 53 53 53 50 44
62 60 59 59 56 54 54 54 55 56 56 57 57 59 60 63 69 76 80 83 83 76 66 59 59 62 70 83 92 99 104 103 103 103 104 105 98 92 94 90 79 73 73 68 59 61 67 64 68 87 99 88 74 74 82 85 74 64 64 63 62 61 56 54 52 52 50 40 39 39 35 39 54 77 103 111 104 105 106 88 72 64 50 46 50 51 51 51
64 64 66 67 65 62 60 59 58 59 59 60 60 60 61 62 64 70 77 82 85 79 69 63 58 58 61 67 76 87 97 102 105 105 103 101 100 104 104 93 84 82 74 65 69 75 70 64 70 80 82 77 83 90 92 89 80 74 76 74 76 78 65 57 58 54 47 39 37 35 30 32 39 53 85 111 108 102 107 99 83 69 52 41 41 44 47 52
64 68 75 80 80 77 71 65 62 61 62 64 65 64 62 60 60 63 68 74 81 80 74 69 64 61 61 61 65 74 84 95 103 107 105 101 101 104 103 97 95 92 81 83 95 86 69 68 72 72 76 87 97 95 84 80 79 81 84 77 75 79 73 71 74 69 60 50 40 34 28 26 35 46 70 104 112 103 104 103 88 70 51 41 39 42 45 46
58 67 79 87 91 92 89 84 77 70 66 64 64 65 63 61 59 59 61 64 71 77 76 75 70 63 62 62 63 66 72 83 94 101 103 103 104 104 104 103 103 101 96 101 105 91 80 78 76 83 95 98 93 90 87 84 85 92 95 84 74 78 80 78 80 77 72 65 54 45 31 24 37 49 68 100 109 101 101 102 94 71 49 40 43 53 59 52
50 52 61 71 79 87 94 97 94 84 72 64 61 62 65 65 62 58 57 58 61 69 72 71 71 69 68 66 67 68 68 72 80 88 94 100 105 108 107 103 104 105 103 103 102 95 95 97 98 103 100 89 85 89 96 97 98 100 98 94 90 88 89 87 86 79 71 66 64 61 47 33 38 50 76 106 107 100 100 101 101 90 66 48 48 62 67 56
60 53 49 51 55 64 77 88 95 89 75 63 57 57 59 60 61 56 54 52 51 59 64 59 62 72 76 76 77 75 68 67 73 78 82 88 96 102 101 97 99 103 102 103 102 97 99 104 107 106 99 93 92 90 93 97 94 87 88 101 106 101 101 101 96 87 77 68 61 65 62 45 38 50 81 101 94 94 102 100 103 107 95 72 61 63 58 52
71 66 59 54 51 50 54 61 69 72 68 62 61 63 60 57 56 53 53 47 39 48 56 52 57 68 75 79 80 73 62 57 62 67 72 77 84 89 89 89 91 91 89 90 92 96 103 104 101 103 105 104 100 96 94 87 76 70 78 94 99 101 105 104 100 93 87 81 67 64 67 57 43 53 84 91 77 84 101 104 102 105 106 97 86 74 59 56
77 76 74 70 67 62 57 56 56 58 60 60 61 64 63 63 62 59 59 49 38 43 52 53 57 61 64 68 68 66 61 54 50 51 59 65 69 74 75 77 77 73 70 71 74 83 94 100 101 102 105 104 103 98 80 63 60 62 68 79 86 92 93 92 93 90 89 91 82 70 68 65 51 51 73 81 78 89 99 105 104 100 103 102 98 95 80 66
70 71 71 70 72 74 72 69 66 64 65 65 64 61 61 63 64 64 65 56 46 48 52 52 54 53 54 57 60 63 65 63 57 53 54 57 58 60 64 66 65 63 61 60 61 63 68 82 95 100 102 103 105 96 75 64 66 67 67 70 72 76 78 79 81 82 84 87 90 88 79 71 57 49 58 65 74 90 94 101 107 102 103 101 97 102 96 77
69 66 64 65 68 74 76 77 78 76 74 73 72 68 66 66 65 66 66 62 65 68 63 57 55 55 54 55 57 60 62 63 63 61 59 59 58 59 61 59 56 57 59 57 56 56 55 61 71 80 86 91 97 99 94 88 80 72 71 70 67 66 68 70 70 74 77 75 83 96 96 87 68 50 52 59 69 83 91 101 109 103 102 103 100 101 101 94
74 70 66 67 69 73 76 77 82 84 83 82 79 74 72 72 72 71 64 64 72 73 67 59 56 56 55 55 58 62 64 63 63 62 59 58 59 61 63 61 56 53 53 53 52 53 54 55 58 62 67 71 76 79 82 85 81 74 72 70 67 63 58 57 60 65 73 76 82 91 96 97 88 68 57 55 57 65 76 93 106 106 103 102 104 101 99 104
76 72 68 70 74 77 80 81 82 83 85 86 86 82 78 74 72 70 71 78 81 77 73 64 56 55 56 58 63 66 68 66 65 63 60 57 55 57 61 63 64 61 57 58 60 60 59 58 58 57 58 62 65 66 66 69 75 77 75 69 63 59 55 49 49 52 58 67 77 86 88 87 88 85 75 63 55 52 60 76 90 100 103 103 110 108 99 99
90 83 76 74 75 78 82 85 85 84 86 87 87 87 85 77 68 66 74 82 82 81 81 74 66 63 64 64 63 64 64 65 66 65 62 59 56 56 57 58 62 64 63 64 68 72 74 73 71 65 62 61 60 62 64 62 67 71 74 75 72 72 68 59 56 55 51 52 60 71 76 76 77 81 78 71 62 53 52 59 67 81 94 99 105 112 107 100
99 95 86 79 79 82 86 90 90 88 89 89 89 89 87 81 75 76 83 84 82 82 82 82 78 73 73 73 66 59 57 59 65 67 64 61 57 56 56 56 57 58 58 59 61 66 70 71 72 72 73 74 71 68 68 67 67 68 72 79 85 88 86 84 82 72 56 46 46 51 56 62 68 70 69 64 60 57 53 53 55 62 78 89 94 103 109 104
102 102 95 89 91 94 98 101 101 98 96 96 98 95 87 79 78 81 82 82 88 95 97 101 100 90 81 76 70 63 59 59 63 66 65 61 59 57 57 59 62 62 60 59 59 61 62 62 62 66 69 74 77 79 82 83 79 77 76 77 84 90 90 92 92 86 79 65 51 46 40 41 51 55 56 56 54 56 55 56 59 60 68 79 81 86 99 104
104 103 98 95 97 100 101 103 104 103 102 103 105 102 93 86 85 85 82 84 92 98 99 104 106 101 89 77 74 75 71 64 61 63 63 63 65 64 65 71 76 78 78 76 77 76 77 75 71 73 79 81 84 89 95 99 96 94 92 87 91 94 91 93 90 88 98 93 79 70 53 39 43 43 48 58 58 56 57 56 58 62 67 73 71 67 73 85
105 104 102 99 99 101 100 101 102 102 101 104 103 99 94 92 92 94 96 99 102 100 100 100 99 100 99 93 89 85 79 73 70 69 68 68 71 71 74 80 82 86 88 89 89 86 87 89 79 78 89 96 101 104 104 106 104 103 104 100 101 102 98 103 105 99 101 99 97 97 77 52 46 39 42 57 60 63 69 62 55 56 61 70 76 71 67 69
101 102 102 100 101 101 99 99 100 100 102 103 100 94 91 95 99 102 101 99 101 103 102 98 93 95 101 101 97 93 89 84 82 84 83 80 79 76 79 84 84 89 94 95 96 93 93 99 90 79 84 90 96 102 103 106 106 104 105 102 100 104 103 101 104 104 102 96 91 92 83 66 59 51 43 44 49 59 67 61 52 48 52 64 71 68 71 77
101 102 101 101 101 101 101 101 100 101 101 98 95 94 96 102 102 102 102 100 101 105 103 97 92 91 92 92 95 98 98 94 90 93 93 88 83 78 79 85 89 96 101 99 101 102 99 106 104 91 88 90 87 88 92 101 108 107 108 108 103 105 108 105 104 104 104 103 101 100 99 91 82 73 59 50 53 58 58 54 50 47 57 80 86 74 67 68
101 101 100 98 100 100 100 101 99 101 101 96 97 100 102 106 104 100 101 100 100 102 100 98 97 93 92 93 97 99 99 100 97 96 94 86 84 86 85 90 96 100 103 102 103 104 100 103 108 102 99 100 94 93 95 97 104 105 99 99 96 91 89 88 90 92 93 97 100 101 102 98 89 80 67 59 63 67 64 60 57 56 67 89 102 99 83 64
102 101 98 94 97 99 99 103 102 100 102 99 96 98 99 103 104 102 101 100 102 103 101 101 101 98 97 99 101 100 98 99 96 96 100 90 87 97 94 96 106 100 96 102 101 99 100 101 103 101 100 102 99 99 101 96 95 97 92 89 87 81 75 69 67 71 75 79 82 82 83 83 79 71 60 51 52 57 57 56 57 60 69 79 85 88 80 66
101 100 97 91 92 91 92 101 103 102 109 107 102 102 102 103 103 100 100 100 101 102 101 101 101 101 102 100 102 104 101 101 92 91 102 94 89 103 102 102 116 106 90 96 95 90 99 104 96 85 82 86 85 84 89 89 85 85 88 87 84 80 75 66 60 61 63 66 68 65 61 58 54 56 60 55 46 40 38 39 43 49 60 72 76 73 63 55
103 103 102 97 97 94 89 91 89 89 96 98 99 101 100 101 103 101 103 104 102 100 101 102 99 101 105 100 101 103 102 103 92 82 93 94 87 101 106 102 112 109 92 98 101 91 94 100 91 77 68 67 69 68 70 76 77 79 85 86 82 76 65 54 47 45 46 47 45 41 36 33 36 53 73 72 57 46 40 35 36 40 48 57 61 57 48 40
94 98 101 100 102 104 102 98 94 96 97 94 96 98 96 100 102 101 103 104 102 100 99 100 99 100 105 104 101 101 99 103 98 85 92 99 88 93 104 99 102 108 99 100 109 102 94 95 89 73 56 44 43 45 49 58 66 69 72 70 64 60 58 56 52 47 44 41 35 29 24 23 35 59 74 71 64 60 55 50 54 60 59 54 50 50 49 41
93 93 93 94 96 98 98 96 93 96 95 91 94 92 92 97 96 96 101 101 101 99 94 98 100 97 101 104 101 100 100 103 102 92 95 102 92 88 99 101 102 110 106 103 112 108 92 79 66 50 37 28 26 29 35 46 52 51 51 53 55 62 69 71 65 52 42 37 31 27 27 29 40 58 69 72 79 85 82 82 90 92 77 57 46 44 43 38
98 97 93 94 95 91 91 91 89 88 84 86 92 88 88 94 92 95 99 97 99 99 94 100 102 93 95 100 98 100 106 107 102 97 99 103 98 96 103 106 105 109 109 106 107 99 79 57 40 33 33 33 33 32 33 40 45 46 52 62 73 84 85 76 61 43 33 35 33 30 34 39 45 61 78 87 97 106 106 103 108 110 91 66 55 52 49 47
97 99 98 103 104 98 98 100 101 101 96 97 101 98 97 98 98 102 103 98 102 103 99 103 103 97 102 104 98 99 106 108 103 101 103 105 104 104 104 104 103 103 106 105 95 79 62 44 33 34 38 38 39 38 35 37 40 42 50 62 74 87 92 83 65 47 42 44 37 36 50 60 63 76 90 95 100 108 109 103 105 110 102 88 85 86 84 82
92 95 93 95 97 94 93 94 94 94 93 92 92 92 95 94 93 100 103 100 103 101 98 101 99 100 108 108 103 103 104 106 107 105 105 106 106 104 98 94 95 93 90 87 74 60 53 46 41 42 44 42 42 40 36 37 39 41 46 52 58 69 81 85 78 69 64 54 39 41 57 65 68 80 90 92 96 102 103 101 102 104 102 101 103 101 99 96
91 95 92 90 92 91 89 89 87 87 87 87 85 87 91 90 87 89 88 86 88 85 85 91 89 91 99 100 102 106 103 102 105 103 102 103 98 89 81 76 78 79 78 73 64 58 60 57 48 44 46 44 43 43 42 40 40 43 47 48 49 52 57 61 64 70 78 74 59 51 48 40 43 62 81 93 102 103 101 101 101 101 101 103 103 100 101 94
78 80 79 78 81 80 80 81 82 84 87 87 91 92 91 87 82 76 71 70 73 74 77 84 86 88 96 99 98 100 97 93 92 89 88 89 83 72 65 60 59 62 66 67 62 57 59 58 49 46 52 51 45 43 43 41 41 41 39 38 40 42 40 39 44 54 65 68 59 49 42 35 37 51 67 79 89 97 104 105 101 101 103 102 99 99 101 92
48 50 50 53 57 58 62 68 70 75 80 81 85 85 80 75 70 65 64 63 65 69 70 75 81 86 92 95 90 86 82 77 74 71 69 70 67 60 55 52 48 48 51 55 57 55 54 55 53 54 59 54 43 39 39 40 41 38 31 29 31 31 30 33 40 44 44 42 39 38 38 35 35 43 47 47 55 76 100 108 103 101 101 99 100 102 103 99
31 33 32 37 44 46 51 59 59 61 64 62 61 59 56 55 53 53 56 56 57 62 63 64 69 70 71 75 74 72 68 64 62 60 57 56 54 50 47 44 41 39 38 41 49 54 53 52 51 52 54 48 38 34 34 35 37 31 25 25 27 28 29 31 34 36 36 36 34 32 31 29 29 32 33 34 41 60 85 100 102 103 103 101 102 103 102 100
Wind_Speed
28 28 29 29 29 29 29 29 30 30 30 31 31 31 32 32 32 33 33 33 33 33 33 33 34 34 34 35 35 36 35 34 33 34 35 34 33 34 35 34 34 34 33 32 31 31 30 30 29 28 28 28 28 28 27 28 28 28 29 29 29 30 32 32 34 34 34 34 34 33 32 31 30 29 27 25 24 23 23 23 22 21 22 21 21 21 22 23
28 28 28 28 29 29 29 29 29 29 30 31 31 32 32 32 33 33 33 33 33 33 33 33 34 34 35 35 36 36 36 35 33 34 35 34 33 33 33 33 33 33 33 32 31 30 29 29 28 28 28 27 27 27 27 27 27 28 28 28 27 28 30 30 31 33 34 35 35 35 35 34 32 31 31 28 27 26 24 25 25 23 23 24 22 22 23 24
27 28 28 28 29 29 29 29 29 29 29 30 30 31 31 32 32 32 32 33 33 33 33 33 33 33 34 34 35 36 36 34 31 32 35 34 32 32 32 32 32 32 31 31 29 29 28 28 28 27 26 26 26 26 25 25 26 26 27 27 25 26 29 30 29 31 32 34 34 35 36 37 35 33 33 32 32 29 25 27 29 26 24 25 25 24 24 25
27 27 28 28 29 29 29 29 29 29 29 29 29 29 30 30 30 30 31 31 31 31 31 31 31 32 32 33 34 34 35 33 30 31 33 32 31 31 31 31 30 30 30 29 28 27 27 27 27 26 25 24 25 24 22 21 22 24 23 24 23 23 27 29 28 29 31 32 32 33 35 37 37 36 35 35 35 32 27 29 31 29 27 26 27 27 26 26
28 28 28 28 29 29 29 29 29 29 29 29 29 29 29 29 29 29 29 29 29 29 29 29 29 29 29 30 31 32 33 31 29 30 31 30 30 30 30 29 29 29 28 27 26 26 25 25 26 25 25 24 23 22 20 17 17 19 20 18 18 20 23 26 24 26 28 30 31 30 32 35 36 37 37 37 38 34 30 30 32 33 30 27 28 28 28 27
29 29 29 29 29 29 29 29 30 29 30 30 30 30 29 29 29 29 29 29 29 28 28 27 27 28 28 29 30 31 31 29 28 29 29 29 29 29 28 28 28 27 27 26 25 25 24 24 25 24 25 24 22 21 19 15 14 16 18 15 14 16 19 21 20 23 25 26 28 29 30 32 33 34 36 40 39 33 31 32 33 34 33 31 30 29 30 29
30 30 30 30 30 30 30 30 30 30 30 30 30 30 30 30 29 29 29 29 29 28 28 28 27 28 28 29 30 32 32 28 28 29 28 28 28 28 27 27 26 26 25 24 23 23 23 23 23 22 24 24 21 21 18 15 14 15 18 16 16 16 17 19 19 21 21 22 25 25 28 28 28 29 33 40 39 30 30 33 35 35 35 35 33 31 32 32
31 31 31 31 31 31 31 31 31 31 31 31 30 30 30 30 30 30 30 29 29 29 29 28 29 29 29 31 31 34 34 30 29 29 29 29 28 27 27 26 26 25 24 23 23 23 23 22 22 22 23 23 22 21 18 16 16 16 18 19 20 19 18 19 21 22 19 20 22 21 24 24 23 25 29 38 35 28 30 34 36 35 35 37 37 34 34 34
32 32 32 32 32 32 32 32 32 32 32 32 32 31 31 31 31 31 30 30 30 30 30 29 30 30 30 32 32 36 36 31 31 31 31 30 29 28 27 26 25 26 25 24 23 23 23 23 23 23 24 24 24 23 20 18 18 17 18 21 22 21 21 21 23 24 19 20 20 18 21 23 23 24 28 36 31 26 30 34 36 36 37 38 38 38 36 36
33 33 33 33 34 34 34 34 34 34 34 33 33 32 33 33 32 32 31 30 30 30 30 29 29 29 31 33 33 38 38 33 33 33 32 33 32 31 29 28 27 27 27 26 25 25 25 25 25 25 25 26 26 25 22 20 20 20 20 22 23 23 24 24 24 25 21 21 20 16 19 23 25 26 28 33 28 26 30 31 34 36 38 40 39 40 39 38
35 35 35 35 35 35 36 35 35 35 35 35 34 34 34 34 33 33 31 30 29 30 30 28 28 28 30 33 36 39 39 36 34 34 33 33 33 33 32 32 31 31 30 29 28 27 28 27 26 26 26 27 28 27 25 24 23 23 22 23 25 24 26 28 26 26 23 23 21 15 19 24 27 28 28 28 26 25 28 31 33 34 36 39 40 41 41 41
35 36 36 36 36 37 37 37 37 37 36 36 36 35 35 35 35 34 33 31 30 30 30 28 27 28 28 34 39 40 39 38 36 34 32 32 33 34 35 35 34 34 33 32 31 30 30 29 28 28 28 28 30 30 29 29 28 27 25 23 26 26 27 31 29 27 26 25 24 17 17 25 30 30 28 26 24 24 26 30 33 33 34 37 39 40 41 43
37 37 37 37 38 39 39 39 39 39 38 38 37 37 36 36 35 35 35 33 32 31 30 28 28 28 28 35 43 42 40 41 38 35 32 32 33 35 35 35 36 36 37 36 35 34 34 33 31 30 30 31 32 33 32 33 32 31 28 24 27 27 29 35 34 30 28 26 25 19 16 24 33 33 28 27 26 24 25 28 31 33 34 36 37 37 38 41
41 39 39 39 39 40 41 41 41 41 40 40 39 38 37 37 37 37 37 36 35 32 30 29 28 28 28 36 45 44 42 42 41 38 35 34 35 36 37 36 37 38 39 39 39 38 37 36 34 33 34 34 35 35 35 35 35 34 31 28 28 26 29 38 39 34 31 29 26 22 17 23 35 37 31 29 28 26 27 28 29 30 32 35 37 36 35 37
44 43 42 41 41 41 42 42 42 43 43 42 41 40 39 38 38 38 38 38 37 35 32 30 29 28 27 36 45 45 44 44 42 40 38 37 37 38 38 37 37 38 39 40 40 41 40 39 37 36 37 38 40 39 37 37 39 38 34 31 31 29 29 36 41 39 34 32 29 24 20 21 33 40 37 33 31 29 30 31 31 30 30 32 33 34 33 34
47 46 46 45 44 44 44 43 43 44 45 45 44 42 41 40 39 40 40 40 39 38 35 33 32 30 27 36 45 45 45 44 43 41 40 39 39 40 40 38 39 39 39 40 41 42 41 38 37 38 40 42 45 44 40 38 40 43 38 34 35 35 32 33 41 44 38 34 32 27 23 22 30 40 41 39 35 32 33 34 34 32 31 30 30 31 31 31
49 48 48 48 48 47 47 46 46 46 46 46 46 45 43 42 41 41 40 41 40 40 38 35 36 33 30 37 43 45 46 45 44 43 42 41 41 42 41 40 40 40 41 41 43 43 41 38 37 38 41 47 51 47 39 37 41 44 41 37 38 38 37 35 39 47 44 37 34 30 26 24 29 37 43 44 39 35 35 36 36 35 34 32 31 30 30 28
50 50 50 50 50 50 50 50 49 49 49 49 48 47 46 44 43 42 41 41 41 40 39 37 39 35 33 39 42 44 47 46 45 44 44 45 44 43 42 41 41 42 42 43 45 44 41 39 38 38 42 50 54 47 39 39 41 42 41 39 38 39 40 39 41 48 49 41 36 34 29 28 29 33 40 45 43 38 38 38 36 37 38 36 34 33 32 30
51 51 51 51 51 52 53 53 52 52 52 51 51 51 49 47 46 44 43 42 41 41 40 39 40 38 37 41 43 43 45 46 47 47 48 49 47 45 43 43 42 42 43 45 47 44 42 41 39 39 44 52 53 46 42 42 42 41 40 39 37 38 39 42 45 49 51 44 39 38 33 30 29 29 34 41 44 42 40 39 37 38 39 38 38 37 35 32
53 53 53 53 54 54 54 54 54 54 54 55 54 53 52 51 49 47 46 44 43 43 42 41 41 40 40 43 44 45 45 46 48 50 53 53 50 48 47 46 44 43 44 46 45 44 43 42 41 44 49 53 51 48 45 44 43 41 40 39 38 38 38 42 46 49 53 45 37 40 36 31 29 28 31 35 40 44 44 42 38 38 39 38 39 40 38 35
55 56 56 56 56 57 57 57 56 56 57 57 57 56 55 54 52 50 48 47 47 46 44 43 43 41 42 45 46 47 48 47 50 55 56 56 54 52 51 51 48 46 48 50 47 45 44 40 42 49 52 52 52 51 49 46 44 43 41 40 39 40 40 41 45 48 52 45 36 40 38 32 32 31 31 34 37 43 47 46 42 39 39 39 40 41 40 38
58 58 60 60 60 60 60 59 59 59 59 59 60 59 58 57 54 52 50 48 50 50 47 46 46 42 43 47 48 49 50 50 54 58 59 59 58 56 55 54 52 51 52 53 52 49 45 42 44 51 53 53 52 53 52 49 47 45 44 43 41 43 43 40 44 47 50 45 37 40 37 32 34 33 34 37 37 41 47 49 46 41 39 40 41 42 42 40
60 62 62 63 63 64 63 63 63 63 62 62 62 62 62 61 58 56 52 48 49 53 53 51 49 46 47 49 51 51 50 52 56 59 62 62 61 61 59 57 56 55 54 55 57 52 46 45 50 54 55 54 54 55 55 52 49 47 48 47 43 46 46 41 43 46 48 45 39 39 34 29 33 36 38 40 38 40 46 49 49 46 43 42 41 43 44 43
61 63 65 64 64 65 66 66 66 66 65 64 64 64 65 64 63 60 57 52 48 52 58 57 53 50 51 53 54 54 52 53 56 59 63 64 63 63 61 59 58 56 56 59 60 54 49 49 53 55 56 56 56 57 58 56 53 50 51 51 47 48 50 45 45 47 45 45 44 43 33 25 33 39 39 43 40 39 44 46 47 49 48 45 43 44 46 46
61 63 65 67 67 67 67 67 67 68 68 68 67 67 67 66 66 64 61 58 52 52 57 60 58 57 57 58 57 58 56 56 58 60 63 64 64 64 61 61 61 58 60 62 61 55 51 54 57 57 57 58 58 57 59 63 59 53 54 57 54 53 54 51 51 49 44 42 44 47 36 23 31 39 39 45 44 39 42 44 46 52 51 48 47 48 50 50
64 64 65 67 68 69 70 70 71 71 71 71 70 69 68 67 67 67 64 61 55 53 57 59 60 62 63 63 62 61 60 60 61 62 63 64 65 65 62 62 63 62 63 64 61 55 53 58 61 59 58 58 58 56 61 68 65 55 57 63 62 60 59 57 55 53 48 44 41 45 41 27 27 37 44 48 47 44 44 46 48 52 53 51 50 51 53 54
69 69 68 69 70 70 71 72 73 74 74 75 73 73 71 70 69 68 67 63 54 53 57 58 60 63 64 66 66 65 64 64 64 65 65 66 66 66 64 64 66 65 65 65 61 56 59 62 62 63 62 60 59 59 63 70 67 59 61 66 65 63 63 61 60 58 54 51 46 45 50 40 29 34 46 48 47 47 47 47 48 51 53 53 53 54 55 57
72 72 73 74 74 74 74 74 75 75 76 76 76 76 74 74 72 71 71 65 54 53 59 60 62 64 63 64 66 68 68 66 66 67 67 68 67 67 67 66 68 67 67 67 60 58 64 65 64 66 66 64 64 65 66 69 69 65 67 69 67 67 66 65 64 62 59 56 51 48 56 55 37 34 43 44 43 48 49 49 48 50 54 54 54 55 56 58
74 75 76 77 78 79 80 79 78 78 78 78 79 78 77 76 75 76 76 67 58 59 63 63 64 65 65 66 67 69 71 70 71 70 69 70 70 70 70 71 72 70 70 69 62 61 67 67 65 67 68 69 71 72 72 73 74 73 74 74 73 72 71 71 69 68 67 60 54 52 58 63 49 36 39 42 42 48 50 50 50 50 53 54 53 53 56 58
77 78 78 78 79 82 82 82 83 82 82 81 81 81 81 80 79 79 76 68 66 69 69 68 69 69 69 70 70 71 72 73 74 74 73 73 72 72 72 73 75 74 74 72 66 67 71 69 66 67 69 71 72 74 76 78 79 79 80 78 77 75 73 75 73 71 72 63 55 55 58 63 55 41 41 44 45 48 48 49 53 53 53 54 53 53 53 55
80 81 81 80 80 82 83 84 86 86 86 86 85 85 85 84 83 82 77 73 75 77 74 75 75 74 74 74 73 74 74 74 74 75 75 74 74 74 75 77 78 77 76 75 72 72 73 71 70 70 72 73 74 76 77 79 81 82 82 82 81 80 78 78 75 73 74 63 55 58 62 63 55 45 47 52 51 51 49 49 52 54 55 55 57 57 55 54
84 84 84 83 82 82 83 86 87 88 90 90 90 89 89 89 86 83 81 81 84 81 78 80 79 78 79 78 78 78 77 77 76 77 76 75 75 75 77 79 81 82 80 78 78 76 73 73 74 74 74 77 79 79 78 79 81 83 85 87 88 87 85 84 82 81 78 68 62 65 67 62 52 47 52 56 55 54 52 52 52 53 54 55 59 62 60 57
88 88 88 87 86 86 86 87 89 91 92 93 95 94 94 94 89 84 85 88 89 87 85 85 85 84 85 83 83 84 83 83 82 82 81 79 78 77 77 79 81 84 84 83 83 80 77 75 76 78 79 80 81 82 82 82 84 86 88 91 94 94 92 91 90 90 85 76 73 74 72 63 54 55 58 59 60 57 55 56 56 54 56 57 60 62 63 62
92 92 92 92 91 90 89 90 92 93 95 96 99 99 99 97 91 88 89 91 92 92 91 89 89 90 89 88 89 90 90 90 89 89 88 86 84 82 81 81 82 85 87 87 87 85 84 80 77 82 85 84 82 84 86 88 88 87 88 92 95 95 96 99 100 97 90 84 80 80 77 67 60 62 63 63 64 61 58 58 57 57 59 62 64 64 64 64
94 95 95 95 94 93 92 93 95 96 97 99 101 103 102 98 94 93 94 95 96 95 93 91 90 91 91 92 93 95 96 96 96 95 94 93 91 89 87 87 88 90 92 93 92 92 92 87 81 85 90 88 86 88 90 93 93 89 89 92 93 93 98 104 104 101 98 95 91 85 81 73 68 69 70 70 69 66 63 61 59 59 60 63 66 67 66 67
96 97 97 96 96 96 96 96 97 99 100 101 103 105 103 99 98 98 99 99 100 99 98 96 94 94 95 96 97 98 100 101 102 101 100 99 97 94 92 91 92 95 97 98 98 99 100 96 90 90 92 92 91 92 93 96 96 94 92 93 93 96 102 106 107 106 106 107 102 95 89 83 79 77 76 79 78 74 73 69 65 62 62 64 66 66 67 69
99 100 100 99 99 99 99 99 101 102 103 104 105 105 103 101 101 101 101 102 103 104 105 103 101 100 99 98 97 99 101 104 105 105 105 105 105 101 98 97 98 100 101 103 105 107 109 107 103 99 97 97 97 97 97 98 99 100 99 98 99 102 105 108 111 112 113 114 110 103 98 94 91 85 82 85 84 83 83 80 73 67 65 68 70 69 69 71
101 101 101 101 102 103 103 103 104 105 106 108 107 104 103 103 103 104 105 105 106 108 110 109 107 105 105 103 101 101 103 106 107 108 108 110 110 108 105 105 108 108 108 108 109 112 114 115 113 107 104 104 104 103 102 101 103 106 108 108 109 111 112 113 116 117 118 119 117 112 106 103 100 93 88 89 88 89 90 87 83 76 73 77 80 78 76 77
104 104 102 102 104 106 107 108 108 109 110 111 109 106 105 104 105 106 108 109 111 112 114 114 113 111 110 108 105 105 107 109 112 113 114 115 115 114 113 113 114 114 112 111 112 114 116 118 118 114 110 111 111 110 109 109 111 114 116 118 119 120 121 121 123 123 122 121 121 120 118 114 109 104 99 95 93 95 95 92 91 89 88 92 93 91 88 86
112 111 108 106 107 109 111 112 113 114 115 114 111 109 108 109 109 110 111 113 115 117 120 121 120 118 115 112 111 111 113 115 118 119 121 123 123 122 121 120 119 118 118 118 120 121 122 124 124 120 116 115 115 115 116 118 120 122 123 124 125 124 124 126 127 126 125 125 126 128 129 127 121 115 110 105 102 103 102 101 101 101 104 106 105 103 102 99
120 119 116 115 116 117 118 119 120 121 122 120 116 113 114 114 114 114 115 118 120 123 124 125 125 123 122 121 121 122 124 125 125 126 128 130 130 129 129 128 127 128 129 129 129 129 129 131 132 130 127 124 122 123 124 125 126 128 128 129 129 129 130 131 131 129 129 131 133 136 138 136 129 121 115 112 109 108 108 108 109 110 113 114 113 111 109 107
126 125 124 125 127 128 129 129 128 128 127 125 121 119 119 119 119 118 119 121 123 125 126 127 129 131 133 135 135 135 136 134 133 134 134 135 135 134 133 132 132 135 139 140 140 139 138 139 140 140 138 134 132 131 131 132 132 133 134 136 137 138 139 140 138 136 135 137 138 140 142 139 132 122 116 113 110 108 109 110 111 113 115 117 116 115 112 108
132 131 131 131 131 133 134 133 133 133 132 131 130 129 129 129 128 127 127 128 129 131 133 134 137 140 142 144 144 143 143 142 140 140 139 138 138 136 134 134 135 137 141 143 144 145 145 145 145 145 143 141 138 136 134 134 136 137 139 140 142 142 142 142 140 139 140 140 140 140 140 137 129 120 115 114 111 107 105 105 107 110 112 113 112 112 111 108
142 141 140 139 139 140 140 138 137 136 136 137 138 138 139 139 138 137 137 138 140 142 143 144 145 146 147 148 148 147 148 148 146 145 143 142 141 140 138 139 140 140 141 141 142 143 145 145 146 146 143 141 138 135 134 134 135 137 138 139 139 138 138 138 138 139 141 140 139 139 137 132 126 120 117 115 112 107 103 101 103 105 106 106 106 105 105 105
149 148 148 148 148 149 148 146 145 144 143 143 143 144 145 145 145 144 145 147 149 151 152 153 153 152 151 151 150 149 150 150 149 148 147 145 145 144 143 142 142 141 141 141 142 143 143 143 143 142 140 136 133 130 129 130 132 134 133 133 132 131 132 134 135 137 138 136 135 135 134 128 123 121 119 116 112 107 102 99 100 101 102 102 103 102 102 104
155 154 154 154 155 155 154 153 153 153 152 152 152 152 152 150 149 150 151 152 154 155 156 155 154 152 151 151 150 149 149 149 149 150 150 149 148 147 145 143 141 140 140 141 142 143 142 140 138 137 134 131 127 124 123 124 127 128 127 126 127 127 129 130 132 134 133 131 131 131 129 126 123 121 118 115 111 106 102 100 100 102 103 102 100 100 100 102
163 162 162 162 162 162 160 159 159 159 159 160 159 158 157 154 153 153 152 153 154 154 155 154 153 152 150 150 150 149 149 149 150 152 152 151 150 147 145 142 140 139 138 139 140 141 140 137 133 132 130 128 125 122 119 120 121 122 122 122 123 124 126 127 129 129 127 128 129 126 123 124 124 122 118 114 111 107 104 102 102 103 103 101 98 96 98 100
171 170 171 171 170 169 168 166 166 166 166 166 165 164 162 159 157 156 156 156 156 157 157 156 155 153 152 152 152 152 152 151 151 152 151 150 148 145 142 140 138 137 137 137 136 137 137 135 131 129 127 126 123 121 118 118 118 118 119 119 119 120 121 124 125 125 125 126 126 123 122 123 122 120 118 116 113 109 105 102 101 102 101 99 97 96 97 99
175 174 174 175 172 171 170 168 167 165 164 164 163 162 160 158 156 156 155 154 152 152 151 151 151 151 150 150 151 150 151 151 149 148 147 146 145 143 140 137 135 135 134 134 132 132 134 134 130 127 126 124 122 120 117 117 117 117 117 117 116 116 116 117 118 119 121 123 123 122 122 122 121 119 118 116 114 111 110 108 106 104 102 100 99 98 99 101
170 168 168 167 165 163 162 160 159 158 157 156 155 154 153 151 149 148 147 146 144 143 143 143 144 145 144 144 145 145 146 146 144 143 142 142 142 141 139 136 132 130 130 130 128 128 130 130 127 125 125 124 120 118 117 117 118 118 117 114 113 112 111 110 112 114 117 120 119 119 121 121 120 120 119 117 116 116 116 114 111 109 107 106 106 106 107 108
160 159 158 156 154 153 153 152 152 151 150 149 148 147 146 144 142 141 139 139 138 138 138 138 138 138 138 139 140 140 140 141 140 138 138 138 137 136 134 132 129 126 125 124 124 124 125 125 123 123 125 124 119 116 117 118 120 120 116 112 109 108 107 107 109 112 114 115 115 117 119 119 118 119 119 117 116 117 116 115 114 114 113 112 112 113 113 113
148 148 148 147 146 146 146 146 146 145 144 143 142 142 140 138 136 135 134 133 134 133 133 134 135 135 135 135 135 136 136 136 135 134 133 133 132 130 128 127 124 122 120 119 121 121 121 122 121 122 125 124 119 116 117 120 124 122 114 109 107 106 106 108 109 109 111 114 116 117 117 117 116 116 116 115 114 115 115 115 116 116 116 116 115 115 113 112
Wind_Direction
274 273 272 270 269 268 267 266 265 265 266 266 267 267 268 269 270 271 272 274 275 276 277 279 281 282 284 285 285 286 287 288 289 289 288 288 289 290 290 291 292 292 292 293 293 293 293 292 290 288 286 284 281 279 277 277 277 276 276 274 273 272 269 267 266 264 262 260 260 261 259 257 256 256 254 252 255 256 259 261 261 262 263 261 259 257 254 252
274 274 274 274 273 272 272 271 270 270 269 270 270 271 271 272 273 274 275 276 278 279 280 281 282 283 285 286 286 287 288 290 293 293 291 292 292 292 292 293 293 294 294 295 295 295 295 294 293 291 290 288 286 284 283 282 282 281 281 280 278 278 276 273 270 268 265 263 261 261 261 259 256 255 255 252 251 251 255 260 258 258 261 261 259 258 256 253
272 272 273 273 273 273 272 272 272 272 272 272 272 272 273 274 275 276 277 278 278 280 281 282 283 284 285 286 287 288 288 290 293 293 292 294 294 294 294 294 294 294 295 296 297 297 296 295 295 294 292 291 289 287 287 288 287 287 286 284 282 281 280 277 274 273 270 267 264 261 262 261 259 256 255 254 252 249 249 257 259 255 256 259 260 259 258 256
271 272 272 272 272 273 273 273 273 273 273 273 273 273 273 274 274 275 276 277 278 279 281 282 284 285 286 287 288 288 289 291 293 292 291 293 295 295 295 295 296 296 297 298 299 299 298 298 297 296 296 295 293 293 293 292 292 293 290 287 287 285 282 278 276 275 272 271 268 264 262 261 262 260 257 255 254 250 244 250 258 257 254 255 258 259 258 257
272 272 272 272 273 273 273 274 274 274 274 274 275 275 276 277 277 278 279 280 281 282 284 286 287 289 290 290 290 290 290 292 294 293 293 295 296 296 296 297 299 299 300 301 302 302 302 302 300 301 302 300 299 301 301 298 299 299 294 292 293 289 286 283 282 280 276 274 273 271 266 262 262 262 261 259 256 253 246 245 253 258 257 255 255 257 258 257
274 273 274 274 274 275 275 275 275 276 276 276 277 277 279 279 281 282 282 283 285 286 288 290 292 293 294 294 294 293 292 294 296 295 296 297 297 297 298 300 301 302 303 304 305 304 305 304 303 306 307 304 305 306 307 306 306 304 301 303 301 295 296 296 294 287 280 277 275 273 270 267 267 264 262 260 258 255 249 246 249 255 259 257 254 253 256 257
275 275 275 275 275 276 276 276 277 277 277 278 278 278 280 281 282 283 284 285 287 289 291 293 295 296 298 298 298 296 294 297 298 298 299 298 297 298 300 301 302 303 304 304 304 305 305 304 305 308 306 305 307 306 308 311 310 310 309 310 306 303 307 308 304 294 289 285 279 276 275 274 273 270 265 260 259 259 254 250 249 251 257 258 256 252 252 255
274 274 275 275 275 275 275 275 275 275 275 276 276 277 278 280 280 281 283 285 286 289 290 293 294 296 298 297 298 295 294 298 299 298 298 297 297 298 299 300 302 302 302 302 302 303 303 302 303 305 304 303 305 302 304 308 309 310 309 309 305 304 307 309 306 299 301 300 292 289 286 283 277 275 272 263 260 263 260 255 253 250 252 255 257 255 251 251
272 273 274 275 275 275 275 274 274 274 273 274 274 275 276 277 277 279 281 282 285 286 288 290 291 293 294 293 294 290 290 296 295 293 294 294 295 294 294 296 297 297 297 297 297 298 298 297 296 298 299 299 299 298 298 300 303 304 302 302 301 301 303 304 303 299 305 308 305 306 302 291 279 274 274 269 265 265 264 260 257 253 250 251 253 256 254 251
274 274 274 275 275 276 276 275 275 274 274 274 275 275 276 276 277 278 280 282 284 285 287 290 292 293 292 291 289 285 290 295 291 290 291 291 292 291 290 290 289 288 289 290 291 292 291 290 290 292 293 294 294 294 294 295 295 296 295 295 296 298 300 300 300 298 301 304 305 320 319 299 280 274 274 276 275 268 267 264 260 256 253 251 250 252 254 253
276 275 276 276 276 277 277 276 276 276 276 276 276 277 277 277 278 280 281 283 285 285 288 291 294 295 294 292 285 283 290 293 290 291 292 292 292 290 288 286 285 284 284 285 285 286 286 286 287 288 289 291 291 291 293 291 288 288 288 291 294 295 297 297 297 295 297 298 298 317 327 303 284 282 282 283 284 274 268 266 263 260 256 254 250 249 252 253
277 277 276 276 276 277 277 277 277 277 277 277 277 277 277 279 280 281 282 283 284 285 287 290 293 294 296 291 283 284 289 290 291 293 294 296 293 290 288 286 286 285 284 282 282 282 282 282 284 285 286 287 288 289 291 289 286 283 281 287 291 294 295 293 292 293 294 295 294 304 320 304 288 286 288 288 290 286 278 270 266 263 261 259 255 251 250 252
279 278 277 276 276 276 276 276 277 277 277 277 277 277 277 278 279 281 281 282 283 284 285 289 291 292 295 289 282 284 287 288 291 293 296 297 293 290 289 288 288 287 286 284 283 282 281 282 282 283 283 284 285 286 287 286 285 281 281 285 288 293 294 290 289 289 289 289 291 294 307 305 291 286 289 290 289 292 290 282 273 268 265 265 263 260 255 253
281 280 279 278 277 276 276 276 276 276 277 277 277 277 278 278 280 281 281 282 282 282 284 286 287 289 292 287 282 284 286 287 289 292 294 293 290 290 288 289 289 288 287 287 286 284 283 282 282 282 282 282 282 283 284 284 283 281 282 285 284 287 290 290 290 287 285 285 286 287 293 302 294 286 285 287 288 291 292 288 282 277 271 269 269 269 266 259
282 282 281 280 279 278 277 277 276 276 276 277 277 277 277 278 280 281 282 282 282 282 282 283 284 285 289 285 283 285 286 287 288 290 291 288 288 287 286 287 287 286 287 287 286 285 284 284 284 284 283 283 281 280 279 280 281 280 280 282 282 281 282 288 290 286 284 283 284 285 286 294 294 290 286 283 283 286 288 287 284 283 279 274 273 275 274 269
283 283 282 282 281 281 280 279 278 277 277 277 277 276 277 277 279 280 282 282 282 282 282 283 282 282 285 283 283 285 286 287 288 288 288 287 286 284 283 284 284 284 285 285 286 285 285 286 287 287 286 285 282 278 276 278 280 280 278 278 279 278 276 281 287 287 283 280 281 283 284 285 289 291 290 284 280 281 285 286 285 284 284 281 276 276 277 276
283 284 284 284 285 284 284 283 282 281 280 279 278 277 276 277 278 279 281 281 282 281 281 282 281 282 283 281 283 286 286 287 288 287 287 285 283 281 282 282 282 283 283 284 284 284 287 289 289 290 289 286 281 279 280 280 279 280 279 277 276 277 275 274 280 284 282 279 279 279 280 282 285 290 291 287 283 283 284 285 286 286 285 284 280 277 277 279
282 283 284 285 286 286 286 286 286 286 285 284 283 282 280 279 278 279 280 280 281 281 281 281 280 281 281 280 281 283 286 287 287 287 285 282 280 280 280 280 281 281 282 282 282 285 289 291 293 294 289 282 281 285 288 285 282 281 281 279 277 277 276 274 273 276 278 279 279 277 278 280 284 288 290 290 289 288 287 284 286 286 286 286 283 279 277 279
279 280 282 283 284 284 285 286 287 287 288 288 287 286 285 283 281 280 281 281 282 282 281 281 282 282 280 279 278 280 283 286 287 286 282 280 279 280 280 280 279 280 281 280 281 287 290 291 295 293 285 280 284 292 293 288 285 284 284 283 280 277 276 274 271 272 273 274 277 279 278 278 282 284 286 290 293 292 288 285 285 284 284 285 284 282 278 277
275 276 277 278 280 281 282 283 285 286 287 288 288 288 288 286 283 282 281 282 282 282 281 281 282 283 282 279 279 280 280 282 283 282 279 278 279 281 282 279 279 281 281 279 283 290 291 291 294 288 281 282 288 294 291 288 287 287 287 286 283 279 275 273 273 273 273 272 275 277 277 276 277 278 280 285 289 290 288 285 284 282 282 284 284 282 280 276
271 272 273 275 276 276 277 279 280 282 283 284 286 286 287 286 285 283 282 283 283 281 282 282 281 282 282 281 281 281 280 280 279 277 277 278 279 280 279 279 282 283 281 283 289 289 288 293 292 283 281 286 291 291 288 288 288 289 289 287 285 280 276 275 275 274 274 275 273 272 272 272 271 272 275 278 281 284 286 285 284 282 282 282 281 281 281 279
269 270 271 272 273 273 273 275 276 277 278 280 282 283 283 283 283 282 282 283 285 284 282 282 282 282 282 281 281 281 281 281 278 277 277 278 279 278 277 281 283 282 284 288 287 284 288 294 286 281 284 288 289 288 288 289 289 290 288 287 286 282 279 278 276 275 276 277 274 270 270 270 270 269 272 276 277 279 281 283 284 284 282 279 279 280 281 280
268 270 271 271 271 272 272 272 273 274 275 277 278 279 280 280 279 279 279 280 284 287 286 282 281 282 282 280 279 280 281 281 280 280 279 279 279 279 280 283 283 283 286 284 281 283 291 290 283 284 287 285 285 287 288 289 290 289 287 286 287 285 282 279 276 277 278 279 276 271 270 272 271 269 272 277 276 274 275 279 282 284 281 278 278 279 278 278
268 269 270 271 271 271 271 271 272 273 273 275 276 277 277 278 277 277 276 275 277 284 287 284 282 281 280 279 278 278 278 279 280 280 280 281 281 282 284 285 285 286 284 280 280 285 289 286 283 283 283 283 285 287 289 289 288 287 286 288 288 284 282 281 278 276 278 281 279 274 272 272 270 270 273 275 273 272 274 278 281 281 280 280 279 278 276 276
269 270 270 270 270 271 272 272 272 272 273 274 276 276 276 276 276 274 274 273 272 277 281 282 283 283 280 278 278 278 278 278 279 279 280 282 282 283 285 286 286 286 284 282 284 287 287 283 279 278 280 284 286 287 289 288 286 286 289 289 286 283 283 283 280 279 279 280 280 279 277 266 263 269 270 270 271 274 277 279 279 277 278 279 279 277 276 276
270 272 272 270 270 270 270 271 272 272 272 274 276 276 276 276 275 275 274 272 271 274 276 277 280 282 280 279 278 278 279 278 278 279 280 280 281 283 284 285 285 284 284 284 286 288 285 280 278 279 280 282 285 288 288 285 285 289 291 287 285 285 284 283 282 282 282 279 277 280 279 264 253 264 267 267 270 273 276 277 274 274 277 279 278 277 277 278
271 273 273 272 272 271 271 271 272 272 273 274 276 276 276 276 275 276 275 273 272 274 274 273 275 277 278 280 281 281 281 279 279 279 279 278 279 280 282 283 283 283 284 284 285 287 283 279 280 281 281 283 285 284 282 283 288 292 290 286 286 286 284 283 283 284 284 281 279 279 280 271 250 254 265 269 271 272 272 273 272 273 276 278 278 279 279 278
272 273 273 274 274 274 274 274 274 274 274 275 275 276 277 277 277 277 276 276 278 276 274 272 271 272 275 279 282 284 283 283 281 281 280 279 278 280 281 282 281 282 283 282 284 285 282 280 279 280 282 284 283 282 281 285 290 291 288 286 286 284 284 285 285 286 284 283 283 282 282 278 260 246 259 266 270 271 269 270 272 272 273 274 276 278 278 278
273 274 274 275 276 275 275 276 276 275 275 275 276 277 278 279 279 278 276 280 283 278 274 273 271 272 275 277 279 281 283 283 282 282 281 280 281 282 282 282 281 281 281 281 282 282 281 281 280 280 282 283 283 283 284 286 288 288 286 285 284 284 284 284 284 285 283 283 286 283 281 280 271 255 256 260 264 269 269 270 271 269 271 273 273 272 273 275
273 274 275 275 276 275 275 276 275 276 276 276 277 279 279 279 279 277 279 285 283 276 274 275 275 276 277 278 280 280 281 281 281 281 281 281 282 283 283 282 281 281 281 280 281 280 280 280 281 281 281 282 283 284 284 286 287 288 286 284 283 284 284 283 283 283 281 283 286 282 277 277 276 271 265 261 261 266 270 273 273 271 271 273 272 270 269 270
272 273 274 275 275 275 275 275 275 275 277 277 278 278 278 278 277 279 284 286 280 277 278 279 280 280 280 282 282 281 281 281 280 280 280 280 281 282 282 281 280 280 280 280 280 279 279 281 282 282 283 283 283 282 283 285 286 287 286 284 283 283 284 283 283 282 280 281 282 278 274 274 278 281 275 268 263 261 264 270 273 272 272 273 273 271 269 268
274 274 275 275 275 275 275 275 275 276 276 277 277 278 278 278 278 282 286 284 281 281 282 282 283 284 284 284 283 281 282 283 282 282 281 280 280 280 280 280 280 280 279 279 279 279 280 281 281 282 283 284 284 284 284 284 285 285 284 284 284 283 283 284 283 281 279 278 276 274 272 274 279 281 277 273 269 264 261 264 268 269 270 271 271 271 269 267
275 276 276 276 276 276 275 274 275 276 277 277 277 278 278 279 282 286 285 282 282 283 282 283 284 285 285 285 285 286 287 286 285 284 283 282 281 280 279 279 279 279 279 278 278 278 279 279 280 282 281 281 282 283 283 282 281 282 283 284 283 283 285 285 283 280 278 277 275 273 273 276 277 274 272 272 273 271 265 265 267 267 267 267 267 269 268 267
275 276 277 277 277 277 276 275 275 276 276 277 278 278 278 281 285 285 282 282 283 283 283 283 283 283 284 286 287 289 290 290 289 288 287 286 285 284 282 281 280 280 279 278 277 277 276 276 278 280 279 279 280 281 281 280 280 281 282 282 282 285 286 284 281 281 282 281 277 275 275 276 274 271 269 269 272 273 270 268 269 269 268 267 266 266 266 265
274 275 276 277 277 276 275 274 274 275 276 276 277 278 279 282 284 283 282 282 282 280 280 279 279 281 283 285 287 289 291 291 291 290 289 289 288 288 288 287 285 284 283 282 282 280 279 278 278 277 278 279 279 279 280 280 280 281 282 282 283 284 282 281 282 284 286 284 282 282 280 277 275 273 272 272 274 273 270 269 270 269 269 269 267 266 266 265
273 274 275 275 275 275 274 273 273 274 274 275 275 277 280 282 282 282 282 282 281 280 278 277 277 279 282 285 287 288 289 290 290 290 290 290 289 289 289 288 286 285 285 285 285 285 284 283 283 280 280 280 279 279 279 279 280 280 281 282 282 281 280 281 284 285 285 284 285 286 284 282 280 278 278 279 279 277 274 271 270 269 270 270 270 269 269 268
273 274 274 275 274 273 273 272 272 272 273 273 274 277 280 281 281 281 280 279 279 279 279 279 280 281 282 283 283 284 286 287 288 289 289 289 289 290 290 288 286 285 286 286 286 287 287 287 286 285 283 282 281 280 279 280 281 281 280 281 281 281 282 283 285 285 285 284 284 285 284 284 283 281 281 282 281 280 279 277 274 271 270 272 273 273 272 271
271 272 273 274 274 274 273 273 272 273 272 273 275 277 279 280 279 279 278 278 277 277 278 279 281 281 281 281 282 282 283 284 284 285 285 286 287 289 290 289 289 288 287 287 287 288 288 287 287 287 286 284 283 281 281 281 281 280 280 280 281 281 282 282 283 284 284 285 285 285 285 284 284 283 282 280 281 282 282 281 278 274 272 275 276 273 270 269
270 271 271 272 272 273 273 272 272 272 272 274 276 278 279 278 278 277 277 277 276 277 278 279 280 280 279 280 281 281 281 282 283 283 284 285 286 288 288 288 288 288 286 285 284 284 284 284 285 285 285 284 283 282 281 280 279 278 278 279 281 281 281 281 281 282 282 283 284 285 284 284 284 284 282 281 282 284 283 282 280 278 279 280 279 276 273 270
269 270 270 270 270 270 270 270 271 272 273 275 277 277 278 277 277 277 276 277 277 278 279 279 279 279 280 280 279 279 280 281 281 282 283 285 286 287 286 286 286 286 284 283 282 282 282 282 282 282 282 281 282 281 280 279 278 278 279 279 280 281 281 281 280 281 281 281 282 282 283 283 283 283 283 282 282 282 281 281 280 279 280 281 281 280 279 276
268 269 270 271 270 270 270 270 271 272 274 275 276 276 276 275 275 275 276 277 278 278 279 279 279 280 280 280 280 280 280 280 281 282 283 284 285 285 285 285 285 284 283 282 281 280 280 280 281 281 281 280 280 279 279 278 278 278 279 279 280 280 280 280 280 279 279 280 280 280 281 282 283 283 283 281 279 278 278 278 278 278 279 279 279 279 278 277
269 269 270 270 270 271 271 270 271 273 274 275 276 275 274 274 274 275 276 276 277 277 277 278 278 280 281 281 281 281 281 281 281 282 283 283 283 283 284 284 284 285 285 284 283 282 281 281 281 282 282 282 281 280 279 279 279 279 279 280 280 281 281 281 281 280 279 278 279 280 280 282 283 284 283 281 279 277 276 276 276 276 276 276 277 277 276 275
269 269 269 269 270 270 270 271 272 273 274 274 274 274 274 274 275 275 276 276 276 276 276 276 277 279 280 281 282 282 282 282 282 282 283 282 282 282 283 283 283 283 284 284 284 283 283 283 283 283 284 283 282 282 281 281 281 281 281 281 282 282 283 283 283 282 281 281 281 282 282 283 285 285 283 282 280 278 276 276 275 274 273 273 274 275 275 274
269 270 270 270 270 270 271 272 273 273 273 274 274 274 274 274 274 275 275 275 276 276 277 278 279 279 280 281 282 282 282 282 282 282 282 282 282 282 283 283 282 282 282 281 281 281 281 282 283 283 283 283 283 283 282 282 282 281 281 281 281 282 282 282 282 282 281 282 283 283 283 284 285 285 283 282 281 280 279 277 276 274 274 274 274 274 272 271
270 270 270 271 271 271 272 273 273 274 274 274 275 275 275 275 275 275 275 275 277 278 279 280 280 280 280 280 281 282 282 282 282 282 282 282 282 283 283 282 282 281 280 280 279 279 280 280 281 281 282 282 282 282 283 282 281 281 280 280 280 280 280 280 280 280 280 281 282 282 282 283 284 283 283 283 283 282 281 280 277 276 275 275 274 273 271 269
271 271 271 271 272 272 272 273 274 275 275 275 275 275 276 276 276 276 275 276 277 278 278 279 279 279 280 280 280 280 280 280 280 281 281 282 282 282 282 281 280 279 279 279 279 279 279 279 280 281 281 281 282 281 281 281 280 280 279 279 279 279 279 279 279 279 280 281 281 280 281 282 282 281 282 282 283 283 282 280 278 276 276 276 274 272 269 268
272 272 272 272 272 273 273 273 274 274 274 275 275 275 276 276 276 275 275 275 276 276 277 277 278 278 278 278 278 277 278 278 279 280 280 281 281 280 280 279 279 278 278 278 278 278 278 279 280 280 281 281 281 280 279 278 278 278 278 278 278 278 278 278 278 279 280 280 279 280 281 281 281 281 281 281 281 281 281 280 278 277 277 275 272 269 266 265
273 274 274 274 274 275 275 275 275 274 275 275 275 276 276 276 276 275 275 275 275 276 276 277 277 277 276 276 276 276 277 277 277 278 278 278 278 278 278 278 277 277 277 277 277 278 279 279 279 280 280 280 280 279 279 278 278 278 278 277 277 277 276 276 277 278 278 278 279 279 279 278 277 277 278 278 278 278 278 278 276 275 275 275 273 270 266 263
274 274 275 275 275 276 276 276 276 276 276 276 276 277 277 277 276 276 275 275 275 275 276 276 276 275 275 275 275 276 276 276 276 276 277 277 277 277 277 276 276 276 276 277 277 278 278 279 279 280 279 279 279 279 279 279 278 277 276 276 276 275 274 275 275 276 276 277 277 278 277 276 276 275 274 273 273 273 273 273 272 272 273 272 272 271 268 266
273 274 274 274 275 275 275 276 276 276 276 277 277 278 277 277 277 277 276 276 275 275 275 274 274 274 274 274 274 274 275 275 275 275 275 275 276 276 277 276 276 276 276 276 277 277 278 279 280 280 280 279 279 279 279 279 278 276 275 274 274 274 275 275 275 275 274 275 275 276 276 276 275 275 273 272 269 267 267 268 269 270 270 268 268 268 268 270
272 273 273 273 274 274 274 275 275 276 276 277 277 277 277 277 277 276 276 276 275 275 275 274 274 273 273 273 273 274 274 275 275 275 275 275 275 276 276 277 277 277 277 277 277 277 278 278 279 279 279 278 278 279 279 278 277 276 275 275 275 276 276 275 274 274 274 274 274 274 274 273 273 273 272 271 270 269 267 266 265 265 266 266 268 269 271 272
271 272 272 272 272 273 274 274 275 275 276 276 276 276 276 276 276 275 275 275 275 274 274 274 274 274 273 273 274 274 274 274 275 275 275 275 275 276 276 277 277 278 278 278 277 277 277 278 278 278 277 278 278 279 278 278 276 276 276 277 277 276 275 275 274 274 274 274 273 272 272 272 271 271 271 271 271 270 270 268 266 264 263 264 265 268 270 271